Weather History for Kiana, AK

Change the Weather History Date:

Saturday, October 20, 2012

  Actual Average (PASK) Record (PASK)
Temperature  
Mean Temperature 19 °F -  
Max Temperature 21 °F 21 °F 41 °F (2006)
Min Temperature 15 °F 13 °F -4 °F (1997)
Degree Days  
Heating Degree Days 46    
Moisture  
Dew Point 18 °F    
Average Humidity 89    
Maximum Humidity 96    
Minimum Humidity 85    
Precipitation  
Precipitation 0.00 in - - ()
Sea Level Pressure  
Sea Level Pressure 30.60 in    
Wind  
Wind Speed 3 mph (East)    
Max Wind Speed 16 mph    
Max Gust Speed 23 mph    
Visibility 10 miles    
Events Snow    
Averages and records for this station are not official NWS values.
T = Trace of Precipitation, MM = Missing Value Source: NWS Daily Summary

Daily Weather History Graph

Daily Weather History Graph

Search for Another Location

Airport:

Trip Planner

Search our weather history database for the weather conditions in past years. The results will help you decide how hot, cold, wet, or windy it might be!

Date:

Astronomy

Oct. 20, 2012 Rise Set
Actual Time 10:02 AM AKDT 6:49 PM AKDT
Civil Twilight 9:05 AM AKDT 7:45 PM AKDT
Nautical Twilight 8:03 AM AKDT 8:47 PM AKDT
Astronomical Twilight 7:01 AM AKDT 9:49 PM AKDT
Moon 5:18 PM AKDT (10/20) 10:23 PM AKDT (10/20)
Length of Visible Light 10h 39m
Length of Day
8h 47m
Waxing Crescent, 35% of the Moon is Illuminated
Oct 20
Waxing Crescent
Oct 21
First Quarter
Oct 29
Full
Nov 6
Last Quarter
Nov 13
New

Hourly Weather History & Observations

Time (AKDT) Temp. Windchill Dew Point Humidity Pressure Visibility Wind Dir Wind Speed Gust Speed Precip Events Conditions
12:01 AM 21.9 °F - 19.0 °F 89% 30.56 in 10.0 mi Calm Calm - N/A   Overcast
1:01 AM 21.9 °F - 19.0 °F 89% 30.57 in 10.0 mi Calm Calm - N/A   Overcast
2:01 AM 21.9 °F 17.2 °F 18.0 °F 85% 30.58 in 10.0 mi East 3.5 mph - N/A   Overcast
3:01 AM 21.9 °F - 18.0 °F 85% 30.59 in 10.0 mi Calm Calm - N/A   Overcast
4:01 AM 21.0 °F 16.2 °F 18.0 °F 88% 30.60 in 10.0 mi East 3.5 mph - N/A   Overcast
4:16 AM 21.2 °F - 17.6 °F 86% 30.47 in 10.0 mi Calm Calm - N/A   Overcast
5:01 AM 21.0 °F 16.2 °F 18.0 °F 88% 30.61 in 10.0 mi East 3.5 mph - N/A   Overcast
6:01 AM 19.9 °F - 17.1 °F 89% 30.62 in 10.0 mi Calm Calm - N/A   Overcast
6:37 AM 19.4 °F - 15.8 °F 86% 30.49 in 10.0 mi Calm Calm - N/A   Overcast
6:54 AM 17.6 °F - 15.8 °F 93% 30.49 in 10.0 mi Calm Calm - N/A   Overcast
7:01 AM 19.0 °F 13.9 °F 16.0 °F 88% 30.63 in 10.0 mi ESE 3.5 mph - N/A   Overcast
8:01 AM 17.1 °F - 15.1 °F 92% 30.63 in 10.0 mi Calm Calm - N/A   Mostly Cloudy
9:01 AM 16.0 °F - 15.1 °F 96% 30.64 in 10.0 mi Calm Calm - N/A   Clear
9:25 AM 15.8 °F 8.6 °F 14.0 °F 93% 30.50 in 10.0 mi East 4.6 mph - N/A   Mostly Cloudy
9:35 AM 17.6 °F 12.3 °F 15.8 °F 93% 30.50 in 10.0 mi East 3.5 mph - N/A   Mostly Cloudy
10:01 AM 16.0 °F 10.4 °F 14.0 °F 92% 30.65 in 10.0 mi East 3.5 mph - N/A   Scattered Clouds
10:28 AM 17.6 °F - 15.8 °F 93% 30.52 in 10.0 mi Calm Calm - N/A   Overcast
10:38 AM 17.6 °F - 15.8 °F 93% 30.52 in 10.0 mi Calm Calm - N/A   Overcast
11:01 AM 18.0 °F 12.7 °F 15.1 °F 88% 30.66 in 9.0 mi East 3.5 mph - N/A   Mostly Cloudy
12:01 PM 21.0 °F 16.2 °F 17.1 °F 85% 30.66 in 10.0 mi East 3.5 mph - N/A   Clear
1:01 PM 21.9 °F 11.7 °F 18.0 °F 85% 30.67 in 10.0 mi East 9.2 mph - N/A   Overcast
2:01 PM 23.0 °F 15.8 °F 19.0 °F 85% 30.66 in 9.0 mi East 5.8 mph - N/A   Overcast
2:43 PM 23.0 °F 13.9 °F 19.4 °F 86% 30.53 in 9.0 mi East 8.1 mph - N/A Snow Light Snow
3:01 PM 23.0 °F 11.7 °F 19.0 °F 85% 30.66 in 9.0 mi East 11.5 mph - N/A Snow Light Snow
4:01 PM 23.0 °F 13.1 °F 19.9 °F 88% 30.66 in 10.0 mi East 9.2 mph - N/A   Overcast
5:01 PM 23.0 °F 11.7 °F 19.9 °F 88% 30.66 in 10.0 mi East 11.5 mph 16.1 mph N/A   Overcast
6:01 PM 23.0 °F 11.1 °F 19.9 °F 88% 30.66 in 10.0 mi East 12.7 mph 18.4 mph N/A   Overcast
7:01 PM 23.0 °F 9.6 °F 19.9 °F 88% 30.67 in 8.0 mi East 16.1 mph 21.9 mph N/A   Overcast
8:01 PM 23.0 °F 11.1 °F 19.9 °F 88% 30.67 in 8.0 mi East 12.7 mph 19.6 mph N/A Snow Light Snow
8:11 PM 23.0 °F 13.1 °F 19.4 °F 86% 30.54 in 8.0 mi East 9.2 mph 17.3 mph N/A   Overcast
9:01 PM 23.0 °F 12.4 °F 19.9 °F 88% 30.67 in 10.0 mi East 10.4 mph 19.6 mph N/A   Overcast
10:01 PM 21.9 °F 9.2 °F 19.9 °F 92% 30.67 in 9.0 mi East 13.8 mph 23.0 mph N/A   Overcast
11:01 PM 21.9 °F 9.8 °F 19.9 °F 92% 30.66 in 10.0 mi East 12.7 mph 23.0 mph N/A   Overcast